Location: Gwatt
(46.7204°N, 7.6223°E)
Time: 11:34:04
(UTC+00:00)

NOSS 2-2 (D) - Pass Details

Date: 18 September 2020
Orbit: 469 x 1739 km, 63.3° (Epoch: 23 October)

Event Time Altitude Azimuth Distance (km) Brightness Sun altitude
Rises 19:20:06 0° 226° (SW) 2,504 7.0 -18.4°
Reaches altitude 10° 19:22:10 10° 229° (SW) 1,627 6.0 -18.7°
Maximum altitude 19:25:38 64° 313° (NW) 549 3.5 -19.3°
Drops below altitude 10° 19:29:33 10° 35° (NE) 1,838 5.9 -19.9°
Sets 19:32:00 0° 39° (NE) 2,872 6.9 -20.3°
